Tracking 25710 objects as of 6-Jul-2022
HD Live streaming from Space Station
objects crossing your sky now

FENGYUN 1C DEB

Track FENGYUN 1C DEB now!
10-day predictions


NORAD ID: 31312
Int'l Code: 1999-025BPQ
Perigee: 857.6 km
Apogee: 953.7 km
Inclination: 98.8 °
Period: 103.0 minutes
Semi major axis: 7276 km
RCS: 0.0157 m2 (small)
Launch date: May 10, 1999
Source: People's Republic of China (PRC)
Launch site: Taiyaun Space Center, China (TSC)

Note: This is SATELLITE DEBRIS
aabbcc
Your satellite tracking list
Your tracking list is empty




NASA's NSSDC Master Catalog

Two Line Element Set (TLE):
1 31312U 99025BPQ 22185.54598066 -.00000044  00000-0 -19917-5 0  9998
2 31312  98.8119 200.8656 0066043 127.9374  23.9826 13.98629843775593
Source of the keplerian elements: AFSPC